Location: Chrome
(40.5765°N, 74.2163°W)
Time: 01:10:38
(UTC+00:00)

USA 215 - Pass Details

Date: 06 December 2019
Orbit: 1099 x 1109 km, 123.0° (Epoch: 03 January)

Event Time Altitude Azimuth Distance (km) Brightness Sun altitude
Exits shadow 22:03:21 - 42° (NE) 3,486 5.3 -6.5°
Reaches altitude 10° 22:04:49 10° 37° (NE) 2,965 5.0 -6.8°
Maximum altitude 22:10:39 36° 334° (NNW) 1,678 4.3 -7.8°
Drops below altitude 10° 22:16:29 10° 271° (W) 2,964 6.8 -8.8°
Sets 22:19:10 0° 263° (W) 3,922 8.0 -9.3°
